(152021) = 2004 LH2

Discovered at Reedy Creek on 2004-06-10 by J. Broughton.

Orbit

Orbit type: Main Belt

Note: WebGL enabled browser required.

epoch2024-03-31.0
epoch JD2460400.5
perihelion date2021-06-06.80156
perihelion JD2459372.30156
argument of perihelion (°)347.90671
ascending node (°)333.27876
inclination (°)1.36760
eccentricity0.1627474
perihelion distance (AU)2.1470637
Tisserand w.r.t. Jupiter3.4
ΔV w.r.t. Earth (km/sec)9.2
semimajor axis (AU)2.5644155
mean anomaly (°)246.77331
mean daily motion (°/day)0.24000550
aphelion distance (AU)2.982
period (years)4.11
P-vector [x]0.77920585
P-vector [y]-0.57304123
P-vector [z]-0.25389368
Q-vector [x]0.62667621
Q-vector [y]0.70537154
Q-vector [z]0.33125204
absolute magnitude16.3
phase slope0.15
uncertainty0
referenceMPEC 2024-F50
observations used814
oppositions17
arc length (days)8154
first opposition used2001
last opposition used2024
residual rms (arc-secs)0.69
perturbers coarse indicatorM-v
perturbers precise indicator003Ek
first observation date used2001-11-21.0
last observation date used2024-03-19.0
computer nameMPCLINUX
JD of orbit computation2456639.777539
perihelion JD uncertainty (days)9.4889E-05
argument of perihelion uncertainty (°)2.3482E-04
ascending node uncertainty (°)2.3383E-04
inclination uncertainty (°)4.3449E-06
eccentricity uncertainty 4.4901E-08
perihelion distance uncertainty (AU)1.1698E-07
Minimum Orbit Intersection Distances (in AU)
for orbit epoch: 2460400.5, reference: E2024-G51
Mercury1.72652
Venus1.42019
Earth1.13417
Mars0.75972
Jupiter2.31057
Saturn6.15839
Uranus15.4835
Neptune27.2075

Observations

838 total observations over interval: 2001 11 21.30257 – 2024 03 19.508731
These data are available for download (format description).

Date (UT) J2000 RA J2000 Dec Magn Location Ref
2001 11 21.30257 04 34 46.62 +24 12 11.2 19.7   704 – Lincoln Laboratory ETS, New Mexico MPS 155913
2001 11 21.31716 04 34 45.65 +24 12 09.9 19.7   704 – Lincoln Laboratory ETS, New Mexico MPS 155913
2001 11 21.33182 04 34 44.74 +24 12 07.1 20.2   704 – Lincoln Laboratory ETS, New Mexico MPS 155913
2001 11 21.34641 04 34 43.72 +24 12 06.2 19.9   704 – Lincoln Laboratory ETS, New Mexico MPS 155913
2001 11 21.36102 04 34 42.82 +24 12 04.3 20.1   704 – Lincoln Laboratory ETS, New Mexico MPS 155913
2001 12 18.22481 04 07 43.95 +23 04 02.4 19.6   704 – Lincoln Laboratory ETS, New Mexico MPS 155913
2001 12 18.25511 04 07 42.53 +23 03 57.3 20.6   704 – Lincoln Laboratory ETS, New Mexico MPS 155913
2001 12 18.27046 04 07 41.76 +23 03 54.4 20.3   704 – Lincoln Laboratory ETS, New Mexico MPS 155913
2002 01 06.15561 03 56 53.96 +22 22 15.0 21.4 V 691 – Steward Observatory, Kitt Peak-Spacewatch MPS 155913
2002 01 06.17783 03 56 53.52 +22 22 12.9 21.1 V 691 – Steward Observatory, Kitt Peak-Spacewatch MPS 155913
2002 01 06.20024 03 56 53.08 +22 22 10.8 21.5 V 691 – Steward Observatory, Kitt Peak-Spacewatch MPS 155913
2003 02 22.27438 10 19 43.54 +10 25 26.1 19.5 R 699 – Lowell Observatory-LONEOS MPS 155298
2003 02 22.28192 10 19 43.17 +10 25 27.6   699 – Lowell Observatory-LONEOS MPS 155298
2003 02 22.28940 10 19 42.78 +10 25 30.3   699 – Lowell Observatory-LONEOS MPS 155298
2003 02 22.29580 10 19 42.47 +10 25 31.4 20.5 V 291 – LPL/Spacewatch II MPS 155298
2003 02 22.29692 10 19 42.34 +10 25 30.9   699 – Lowell Observatory-LONEOS MPS 155298
2003 02 22.31921 10 19 41.19 +10 25 38.1 21.0 V 291 – LPL/Spacewatch II MPS 155298
2003 02 22.34266 10 19 39.84 +10 25 44.8 20.7 V 291 – LPL/Spacewatch II MPS 155298
2004 06 10.47558 16 39 26.53 -24 32 07.6 19.4 V 428 – Reedy Creek MPS 109072
2004 06 10.49544 16 39 25.40 -24 32 05.1 19.0 V 428 – Reedy Creek MPS 109072
2004 06 11.49588 16 38 26.11 -24 29 57.7 19.2 V 428 – Reedy Creek MPS 109072
2004 06 11.50575 16 38 25.52 -24 29 56.2 19.1 V 428 – Reedy Creek MPS 109072
2004 06 11.51560 16 38 24.89 -24 29 54.7 19.2 V 428 – Reedy Creek MPS 109072
2004 06 14.22898 16 35 47.40 -24 24 03.5 19.3   704 – Lincoln Laboratory ETS, New Mexico MPS 109072
2004 06 14.23889 16 35 46.85 -24 24 01.6 20.2   704 – Lincoln Laboratory ETS, New Mexico MPS 109072
2004 06 14.24881 16 35 46.27 -24 24 00.8 19.9   704 – Lincoln Laboratory ETS, New Mexico MPS 109072
2004 06 14.25889 16 35 45.71 -24 24 00.0 19.5   704 – Lincoln Laboratory ETS, New Mexico MPS 109072
2004 06 14.26936 16 35 45.09 -24 23 58.8 19.9   704 – Lincoln Laboratory ETS, New Mexico MPS 109072
2004 06 16.22728 16 33 54.91 -24 19 35.5 19.6   704 – Lincoln Laboratory ETS, New Mexico MPS 109072
2004 06 16.22744 16 33 54.67 -24 19 30.1 19.8   704 – Lincoln Laboratory ETS, New Mexico MPS 109072
2004 06 16.23707 16 33 54.14 -24 19 28.6 19.7   704 – Lincoln Laboratory ETS, New Mexico MPS 109072
2004 06 16.24708 16 33 53.69 -24 19 31.1 19.8   704 – Lincoln Laboratory ETS, New Mexico MPS 109072
2004 06 16.25743 16 33 53.02 -24 19 28.6 20.0   704 – Lincoln Laboratory ETS, New Mexico MPS 109072
2004 06 16.25759 16 33 52.94 -24 19 26.5 20.0   704 – Lincoln Laboratory ETS, New Mexico MPS 109072
2004 06 16.26712 16 33 52.48 -24 19 27.2 19.8   704 – Lincoln Laboratory ETS, New Mexico MPS 109072
2004 06 25.50867 16 26 09.05 -23 58 06.6   428 – Reedy Creek MPS 109985
2004 06 25.51481 16 26 08.72 -23 58 06.5   428 – Reedy Creek MPS 109985
2005 10 24.38543 03 59 18.64 +22 41 14.4 19.6 V 691 – Steward Observatory, Kitt Peak-Spacewatch MPS 149542
2005 10 24.40303 03 59 17.93 +22 41 12.9 20.0 V 691 – Steward Observatory, Kitt Peak-Spacewatch MPS 149542
2005 10 24.42068 03 59 17.15 +22 41 11.3 20.0 V 691 – Steward Observatory, Kitt Peak-Spacewatch MPS 149542
2005 10 28.30958 03 56 18.95 +22 34 54.6 19.8 V 691 – Steward Observatory, Kitt Peak-Spacewatch MPS 149542
2005 10 28.32715 03 56 18.01 +22 34 52.8 19.7 V 691 – Steward Observatory, Kitt Peak-Spacewatch MPS 149542
2005 10 28.34467 03 56 17.16 +22 34 50.7 20.0 V 691 – Steward Observatory, Kitt Peak-Spacewatch MPS 149542
2005 11 28.29793 03 25 56.02 +21 01 16.5 19.4 V 703 – Catalina Sky Survey MPS 152071
2005 11 28.30337 03 25 55.81 +21 01 15.3 19.5 V 703 – Catalina Sky Survey MPS 152071
2005 11 28.30881 03 25 55.63 +21 01 13.2 20.2 V 703 – Catalina Sky Survey MPS 152071
2005 11 28.31421 03 25 55.30 +21 01 11.3 19.6 V 703 – Catalina Sky Survey MPS 152071
2005 12 08.09470 03 17 35.40 +20 26 53.1 20.1 V 691 – Steward Observatory, Kitt Peak-Spacewatch MPS 153681
2005 12 08.11577 03 17 34.44 +20 26 48.9 20.0 V 691 – Steward Observatory, Kitt Peak-Spacewatch MPS 153681
2005 12 08.13677 03 17 33.46 +20 26 45.2 20.1 V 691 – Steward Observatory, Kitt Peak-Spacewatch MPS 153681
2005 12 10.08163 03 16 09.43 +20 20 28.8 20.3 V 691 – Steward Observatory, Kitt Peak-Spacewatch MPS 155298
2005 12 10.09186 03 16 08.97 +20 20 26.7 20.4 V 691 – Steward Observatory, Kitt Peak-Spacewatch MPS 155298
2005 12 10.10201 03 16 08.53 +20 20 27.2 21.2 V 691 – Steward Observatory, Kitt Peak-Spacewatch MPS 155298
2005 12 30.28838 03 07 45.55 +19 34 53.7 20.0 V G96 – Mt. Lemmon Survey MPS 157755
2005 12 30.29868 03 07 45.44 +19 34 53.0 19.5 V G96 – Mt. Lemmon Survey MPS 157755
2005 12 30.31012 03 07 45.37 +19 34 51.6 19.5 V G96 – Mt. Lemmon Survey MPS 157755
2005 12 30.31999 03 07 45.22 +19 34 51.2 19.6 V G96 – Mt. Lemmon Survey MPS 157755
2006 01 25.11817 03 13 48.18 +19 40 16.3 20.5 V G96 – Mt. Lemmon Survey MPS 160414
2006 01 25.12478 03 13 48.43 +19 40 16.7 21.0 V G96 – Mt. Lemmon Survey MPS 160414
2006 01 25.13139 03 13 48.61 +19 40 17.1 21.0 V G96 – Mt. Lemmon Survey MPS 160414
2006 01 25.13815 03 13 48.82 +19 40 18.5 21.1 V G96 – Mt. Lemmon Survey MPS 160414
2007 01 27.42174 10 04 45.47 +12 13 45.4 21.0 V 691 – Steward Observatory, Kitt Peak-Spacewatch MPS 198121
2007 01 27.44002 10 04 44.59 +12 13 49.6 20.9 V 691 – Steward Observatory, Kitt Peak-Spacewatch MPS 198121
2007 01 27.45805 10 04 43.72 +12 13 54.3 20.6 V 691 – Steward Observatory, Kitt Peak-Spacewatch MPS 198121
2007 02 07.18435 09 55 39.99 +12 58 57.0   691 – Steward Observatory, Kitt Peak-Spacewatch MPS 198701
2007 02 07.20203 09 55 39.03 +12 59 02.0   691 – Steward Observatory, Kitt Peak-Spacewatch MPS 198701
2007 02 07.21973 09 55 38.03 +12 59 06.3   691 – Steward Observatory, Kitt Peak-Spacewatch MPS 198701
2007 02 07.40300 09 55 27.84 +12 59 55.2 20.4 V G96 – Mt. Lemmon Survey MPS 198701
2007 02 07.41181 09 55 27.33 +12 59 57.5 20.5 V G96 – Mt. Lemmon Survey MPS 198701
2007 02 07.42060 09 55 26.83 +13 00 00.1 20.2 V G96 – Mt. Lemmon Survey MPS 198701
2007 02 07.42940 09 55 26.36 +13 00 01.9 20.2 V G96 – Mt. Lemmon Survey MPS 198701
2007 02 13.29594 09 50 02.00 +13 26 10.7 20.1 V G96 – Mt. Lemmon Survey MPS 199472
2007 02 13.30479 09 50 01.46 +13 26 13.2 20.0 V G96 – Mt. Lemmon Survey MPS 199472
2007 02 13.31373 09 50 00.96 +13 26 15.6 20.1 V G96 – Mt. Lemmon Survey MPS 199472
2007 02 13.32343 09 50 00.42 +13 26 18.3 19.9 V G96 – Mt. Lemmon Survey MPS 199472
2007 03 09.29773 09 29 20.90 +14 59 48.9 20.7 V G96 – Mt. Lemmon Survey MPS 202825
2007 03 09.30359 09 29 20.65 +14 59 50.0 20.7 V G96 – Mt. Lemmon Survey MPS 202825
2007 03 09.30940 09 29 20.40 +14 59 51.1 20.8 V G96 – Mt. Lemmon Survey MPS 202825
2007 03 09.31521 09 29 20.14 +14 59 52.1 20.8 V G96 – Mt. Lemmon Survey MPS 202825
2007 03 10.23639 09 28 41.66 +15 02 34.5 20.6 V G96 – Mt. Lemmon Survey MPS 202825
2007 03 10.24473 09 28 41.34 +15 02 35.2 20.5 V G96 – Mt. Lemmon Survey MPS 202825
2007 03 10.25316 09 28 40.98 +15 02 37.0 20.9 V G96 – Mt. Lemmon Survey MPS 202825
2007 03 10.26152 09 28 40.62 +15 02 38.9 20.8 V G96 – Mt. Lemmon Survey MPS 202825
2009 10 14.29807 03 05 04.63 +19 29 16.5 19.5 V 703 – Catalina Sky Survey MPS 299142
2009 10 14.30538 03 05 04.34 +19 29 16.4 19.3 V 703 – Catalina Sky Survey MPS 299142
2009 10 14.31270 03 05 03.98 +19 29 15.1 19.8 V 703 – Catalina Sky Survey MPS 299142
2009 10 14.32003 03 05 03.73 +19 29 14.1 19.8 V 703 – Catalina Sky Survey MPS 299142
2009 10 14.39771 03 05 00.02 +19 29 03.6 19.4 V 703 – Catalina Sky Survey MPS 299142
2009 10 14.40577 03 04 59.62 +19 29 00.6 19.0 V 703 – Catalina Sky Survey MPS 299142
